sat.trackr.live / text

‹ back to catalog

STARLINK-35714

NORAD 66214 · 2025-244J

PAYLOAD ACTIVE UNKNOWN

§ Identity

Operator
Country
US
Launch date
2025-10-28
Launch site
AFWTR
Launch vehicle
Mass (kg)
RCS (m²)

Purposes: comms

External: N2YO · Heavens-Above · Gunter

§ Orbital elements

Epoch: 2026-05-24T23:20:29.304960Z

Period
94.10 min
Inclination
53.1600°
Eccentricity
0.0001277
Mean motion
15.30208037 rev/d
Perigee alt
474.3 km
Apogee alt
476.1 km
Semi-major
6,853.3 km
B*
4.7263e-4
RAAN
235.9509°
Arg perigee
77.0196°
Mean anomaly
283.0947°
Rev number
3,333

§ Raw data

STARLINK-357141 66214U 25244J   26144.97256140  .00013668  00000+0  47263-3 0  99952 66214  53.1600 235.9509 0001277  77.0196 283.0947 15.30208037 33330

JSON: /api/v1/satellites/66214 · /tle

For live sub-satellite position, see the globe view (requires WebGL).

§ Visibility from observer

Set your observer location to see the next 7 days of passes ≥ 10°. The values pass through the URL so the page stays shareable.

No JS? Fill the form by hand. The geolocation button needs JavaScript.